Flag for Philippines Weather past 2 weeks in Mabalacat, Philippines

Now
75 °F

Passing clouds.


Feels Like: 74 °F
Forecast: 80 / 90 °F
Wind: 3 mph from Northeast

Location: Clarkfield Pampanga International Airport

Current Time: May 30, 2015 at 1:30:09 AM

Latest Report: May 30, 2015 at 1:00 AM


Visibility: N/A

Pressure: 29.89 "Hg

Humidity: 94%

Dew point: 73 °F

Location of MabalacatLocation

Historic Weather in Mabalacat — Graph

°F

Mabalacat temperature yesterday

Maximum temperature yesterday: 91 °F (at 1:00 PM)
Minimum temperature yesterday: 75 °F (at 9:00 PM)
Average temperature yesterday: 81 °F

Past Weeks' High & Low Weather Summary

 TemperatureHumidityPressure
High97 °F (May 16, 4:00 PM)100% (May 24, 11:00 PM)29.98 "Hg (May 24, 11:00 PM)
Low75 °F (May 25, 4:00 PM)32% (May 16, 4:00 PM)29.77 "Hg (May 16, 3:00 PM)
Average83 °F75%29.87 "Hg
* Reported Midnight between May 14 and May 15 — Midnight between May 29 and May 30, Mabalacat, Weather by CustomWeather, © 2015

Note: Actual official high and low records may vary slightly from our data, if they occured in-between our weather recording intervals... More about our weather records

Advertising

Mabalacat weather history for previous 24 hours

 ConditionsComfort  
Time TempWeatherWind HumidityBarometerVisibility
12:00 AM
Sat, May 30
75 °FPassing clouds.3 mph94%29.92 "HgN/A
11:00 PM
Fri, May 29
75 °FPassing clouds.2 mph94%29.95 "HgN/A
10:00 PM75 °FPassing clouds.3 mph94%29.95 "HgN/A
9:00 PM75 °FPassing clouds.3 mph94%29.92 "HgN/A
8:00 PM77 °FLight rain. Mostly cloudy.3 mph89%29.89 "Hg6 mi
7:00 PM77 °FLight rain. Mostly cloudy.3 mph89%29.89 "Hg6 mi
6:00 PM77 °FThunderstorms. More clouds than sun.3 mph89%29.86 "Hg6 mi
5:00 PM77 °FMore clouds than sun.6 mph94%29.86 "HgN/A
4:00 PM77 °FLight rain. More clouds than sun.8 mph89%29.83 "HgN/A
3:00 PM77 °FThunderstorms. More clouds than sun.6 mph94%29.83 "Hg4 mi
2:00 PM90 °FThunderstorms. Broken clouds.12 mph59%29.80 "HgN/A
1:00 PM91 °FBroken clouds.5 mph52%29.83 "HgN/A
12:00 PM90 °FBroken clouds.7 mph59%29.92 "HgN/A
11:00 AM90 °FBroken clouds.6 mph59%29.89 "HgN/A
10:00 AM88 °FBroken clouds.5 mph66%29.92 "HgN/A
9:00 AM86 °FPartly sunny.2 mph70%29.89 "HgN/A
8:00 AM84 °FPartly sunny.2 mph79%29.89 "HgN/A
7:00 AM81 °FPartly sunny.1 mph89%29.89 "HgN/A
6:00 AM79 °FPartly sunny.2 mph89%29.86 "HgN/A
5:00 AM79 °FPassing clouds.5 mph89%29.83 "HgN/A
4:00 AM79 °FPassing clouds.3 mph89%29.83 "HgN/A
3:00 AM79 °FPassing clouds.3 mph89%29.83 "HgN/A
2:00 AM79 °FPassing clouds.2 mph94%29.83 "HgN/A
1:00 AM81 °FPassing clouds.5 mph89%29.83 "HgN/A
Weather by CustomWeather, © 2015

See weather overviewHow to use our weather pages